FW4213 Weather Reports


Display with metric or nautical units.
time (UTC)temp
F
wind
direction
speed
MPH
gust
MPH
rain 1hr
in
rain 24hr
in
rain mn
in
humidity
%
barometer
mb
20260505223143 77 294 2.0 9.0 0.00 0.00 0.00 49 1013.9
20260505221532 78 238 2.0 7.0 0.00 0.00 0.00 49 1014.1
20260505214534 75 283 3.0 11.0 0.00 0.00 0.00 52 1014.3
20260505211531 75 283 3.0 9.0 0.00 0.00 0.00 51 1014.5
20260505210044 74 273 2.0 9.0 0.00 0.00 0.00 52 1014.7
20260505210036 74 270 3.0 12.0 0.00 0.00 0.00 51 1014.8
20260505203034 73 268 2.0 8.0 0.00 0.00 0.00 52 1014.9
20260505201534 73 267 3.0 12.0 0.00 0.00 0.00 52 1015.0
20260505200028 73 263 3.0 10.0 0.00 0.00 0.00 54 1015.0
20260505194531 72 274 3.0 13.0 0.00 0.00 0.00 54 1015.2
20260505193035 72 261 3.0 11.0 0.00 0.00 0.00 54 1015.3
20260505190034 71 258 3.0 7.0 0.00 0.00 0.00 56 1015.4
20260505184609 70 265 2.0 9.0 0.00 0.00 0.00 57 1015.5
20260505183030 70 261 3.0 11.0 0.00 0.00 0.00 56 1015.6
20260505181536 69 256 3.0 9.0 0.00 0.00 0.00 58 1015.6
20260505180030 68 248 3.0 11.0 0.00 0.00 0.00 59 1015.6
20260505173035 67 241 4.0 12.0 0.00 0.00 0.00 60 1015.6
20260505170029 66 238 4.0 11.0 0.00 0.00 0.00 62 1015.6
20260505163031 64 236 4.0 12.0 0.00 0.00 0.00 65 1015.6
20260505161609 64 234 4.0 13.0 0.00 0.00 0.00 66 1015.6
20260505153143 62 236 3.0 9.0 0.00 0.00 0.00 70 1015.3
20260505124530 57 235 4.0 10.0 0.00 0.00 0.00 79 1014.1
20260505123137 57 236 2.0 10.0 0.00 0.00 0.00 79 1013.9
20260505121535 57 238 3.0 7.0 0.00 0.00 0.00 79 1013.8
20260505120032 57 242 1.0 7.0 0.00 0.00 0.00 78 1013.7
20260505114532 58 254 2.0 7.0 0.00 0.00 0.00 77 1013.7
20260505113142 58 267 3.0 14.0 0.00 0.00 0.00 77 1013.6
20260505111537 58 261 2.0 9.0 0.00 0.00 0.00 77 1013.6
20260505101536 59 254 2.0 9.0 0.00 0.00 0.00 76 1013.2
20260505100033 59 243 3.0 11.0 0.00 0.00 0.00 76 1013.1
20260505094531 60 258 2.0 9.0 0.00 0.00 0.00 76 1013.0
20260505093144 60 249 1.0 7.0 0.00 0.00 0.00 75 1013.0
20260505091536 61 241 3.0 10.0 0.00 0.00 0.00 74 1012.8
20260505090036 61 248 3.0 9.0 0.00 0.00 0.00 74 1012.6
20260505083230 0 0 0.0 0.0 0.00 0.00 0.00 100
20260505080036 63 252 1.0 6.0 0.00 0.00 0.00 73 1012.3
20260505074533 63 262 1.0 5.0 0.00 0.00 0.00 72 1012.2
20260505073031 63 252 1.0 7.0 0.00 0.00 0.00 72 1012.1
20260505071533 63 246 2.0 7.0 0.00 0.00 0.00 71 1011.9
20260505070036 64 298 1.0 6.0 0.00 0.00 0.00 69 1011.8
20260505064533 64 258 1.0 6.0 0.00 0.00 0.00 69 1011.6
20260505063030 64 251 0.0 4.0 0.00 0.00 0.00 69 1011.5
20260505061533 64 255 1.0 7.0 0.00 0.00 0.00 68 1011.5
20260505060035 64 245 1.0 5.0 0.00 0.00 0.00 67 1011.5
20260505054641 64 245 0.0 4.0 0.00 0.00 0.00 67 1011.6
20260505053037 64 236 1.0 5.0 0.00 0.00 0.00 67 1011.5
20260505051538 63 240 0.0 4.0 0.00 0.00 0.00 67 1011.4
20260505041642 66 264 1.0 7.0 0.00 0.00 0.00 62 1010.7
20260505040049 66 283 1.0 5.0 0.00 0.00 0.00 62 1010.6
20260505034534 67 276 1.0 7.0 0.00 0.00 0.00 61 1010.4
20260505033030 67 289 0.0 3.0 0.00 0.00 0.00 60 1010.2
20260505031535 69 294 0.0 3.0 0.00 0.00 0.00 58 1010.0
20260505024531 70 267 1.0 6.0 0.00 0.00 0.00 57 1009.5
20260505023032 71 250 1.0 4.0 0.00 0.00 0.00 56 1009.5
20260505021536 73 256 2.0 8.0 0.00 0.00 0.00 53 1009.4
20260505020036 74 252 2.0 9.0 0.00 0.00 0.00 52 1009.3
20260505014648 74 271 2.0 9.0 0.00 0.00 0.00 51 1009.3
20260505013140 75 264 2.0 7.0 0.00 0.00 0.00 50 1009.2
20260505011531 77 250 3.0 8.0 0.00 0.00 0.00 48 1009.1
20260505004529 78 273 3.0 9.0 0.00 0.00 0.00 48 1009.2
20260505003141 77 285 2.0 7.0 0.00 0.00 0.00 47 1009.2
20260505000034 79 284 3.0 11.0 0.00 0.00 0.00 45 1009.2
20260504233142 80 248 3.0 7.0 0.00 0.00 0.00 45 1009.3
20260504230036 81 262 2.0 7.0 0.00 0.00 0.00 45 1009.5